VK1ET-13 Weather Reports


time (UTC)temp
C
wind
direction
speed
KPH
gust
KPH
rain 1hr
cm
rain 24hr
cm
rain mn
cm
humidity
%
barometer
mb
20260509030525 16 292 4.8 12.9 0.00 0.00 0.00 63 1023.4
20260509025533 16 319 6.4 12.9 0.00 0.00 0.00 62 1023.4
20260509024522 16 348 4.8 12.9 0.00 0.00 0.00 62 1023.6
20260509023533 16 305 6.4 14.5 0.00 0.00 0.00 62 1023.7
20260509022522 16 327 8.0 16.1 0.00 0.00 0.00 61 1023.8
20260509021531 15 276 4.8 9.7 0.00 0.00 0.00 64 1024.0
20260509020520 15 270 4.8 11.3 0.00 0.00 0.00 64 1024.3
20260509015529 15 323 4.8 12.9 0.00 0.00 0.00 65 1024.3
20260509014518 15 108 4.8 6.4 0.00 0.00 0.00 64 1024.4
20260509013528 15 341 4.8 9.7 0.00 0.00 0.00 63 1024.5
20260509012517 14 315 4.8 6.4 0.00 0.00 0.00 67 1024.6
20260509011534 14 74 3.2 6.4 0.00 0.00 0.00 67 1024.6
20260509010542 12 297 3.2 8.0 0.00 0.00 0.00 73 1024.8
20260509005525 12 67 4.8 9.7 0.00 0.00 0.00 73 1024.8
20260509004534 12 336 4.8 9.7 0.00 0.00 0.00 78 1025.0
20260509003529 11 305 3.2 6.4 0.00 0.00 0.00 81 1025.0
20260509002531 11 298 3.2 8.0 0.00 0.00 0.00 83 1025.1
20260509001520 10 63 3.2 8.0 0.00 0.00 0.00 86 1025.1
20260509000530 10 61 3.2 6.4 0.00 0.00 0.00 90 1025.1
20260508235519 9 183 3.2 4.8 0.00 0.00 0.00 91 1025.4
20260508234529 9 54 3.2 6.4 0.00 0.00 0.00 93 1025.3
20260508233517 9 57 3.2 8.0 0.00 0.00 0.00 94 1025.2
20260508232527 10 68 4.8 9.7 0.00 0.00 0.00 92 1025.3
20260508231536 9 106 3.2 8.0 0.00 0.00 0.00 93 1025.4
20260508230525 9 117 4.8 9.7 0.00 0.00 0.00 95 1025.2
20260508225534 8 83 4.8 8.0 0.00 0.00 0.00 96 1025.2
20260508224538 8 67 4.8 6.4 0.00 0.00 0.00 97 1025.2
20260508222522 7 59 6.4 9.7 0.00 0.00 0.00 97 1025.0
20260508221531 7 81 3.2 8.0 0.00 0.00 0.00 97 1024.9
20260508220520 7 104 3.2 4.8 0.00 0.00 0.00 96 1024.8
20260508215543 6 96 1.6 4.8 0.00 0.00 0.00 96 1024.6
20260508214518 6 353 0.0 3.2 0.00 0.00 0.00 96 1024.7
20260508213528 6 349 1.6 3.2 0.00 0.00 0.00 97 1024.5
20260508212517 6 333 1.6 3.2 0.00 0.00 0.00 97 1024.3
20260508211526 7 210 1.6 3.2 0.00 0.00 0.00 97 1024.3
20260508210535 7 204 0.0 3.2 0.00 0.00 0.00 95 1024.0
20260508205526 7 177 1.6 3.2 0.00 0.00 0.00 96 1023.9
20260508204534 7 195 4.8 8.0 0.00 0.00 0.00 96 1023.6
20260508203523 7 139 3.2 6.4 0.00 0.00 0.00 96 1023.3
20260508202533 7 138 3.2 4.8 0.00 0.00 0.00 96 1023.3
20260508201522 7 154 3.2 6.4 0.00 0.00 0.00 96 1023.1
20260508200531 7 57 1.6 4.8 0.00 0.00 0.00 96 1023.0
20260508195520 7 48 1.6 4.8 0.00 0.00 0.00 96 1022.8
20260508194531 7 352 1.6 3.2 0.00 0.00 0.00 96 1022.8
20260508193518 7 164 1.6 3.2 0.00 0.00 0.00 96 1022.5
20260508192528 8 164 0.0 3.2 0.00 0.00 0.00 96 1022.3
20260508191518 8 318 0.0 3.2 0.00 0.00 0.00 95 1022.4
20260508190526 8 176 1.6 3.2 0.00 0.00 0.00 95 1022.3
20260508185536 8 325 1.6 4.8 0.00 0.00 0.00 95 1022.2
20260508184525 8 139 0.0 3.2 0.00 0.00 0.00 94 1022.2
20260508183534 8 155 1.6 3.2 0.00 0.00 0.00 95 1022.2
20260508182524 8 117 0.0 6.4 0.00 0.00 0.00 94 1022.1
20260508181533 8 109 1.6 4.8 0.00 0.00 0.00 94 1022.1
20260508180530 8 99 1.6 4.8 0.00 0.00 0.00 94 1022.0
20260508175531 8 322 1.6 4.8 0.00 0.00 0.00 94 1022.1
20260508174521 8 144 1.6 4.8 0.00 0.00 0.00 93 1022.0
20260508173531 9 309 3.2 6.4 0.00 0.00 0.00 93 1022.1
20260508172518 9 144 4.8 8.0 0.00 0.00 0.00 93 1021.9
20260508171529 9 229 3.2 6.4 0.00 0.00 0.00 93 1021.9
20260508170517 9 325 1.6 3.2 0.00 0.00 0.00 92 1022.1
20260508165526 10 128 1.6 4.8 0.00 0.00 0.00 91 1022.0
20260508164535 10 351 3.2 8.0 0.00 0.00 0.00 92 1021.8
20260508163532 10 341 3.2 6.4 0.00 0.00 0.00 91 1021.9
20260508162535 10 68 3.2 4.8 0.00 0.00 0.00 90 1021.9
20260508161538 10 67 1.6 3.2 0.00 0.00 0.00 89 1021.9
20260508160534 11 54 3.2 8.0 0.00 0.00 0.00 88 1021.8
20260508155521 11 25 1.6 4.8 0.00 0.00 0.00 87 1021.8
20260508154531 11 91 3.2 4.8 0.00 0.00 0.00 87 1021.8
20260508153520 11 62 1.6 3.2 0.00 0.00 0.00 86 1021.7
20260508152530 11 14 1.6 3.2 0.00 0.00 0.00 86 1021.8
20260508151518 11 61 1.6 3.2 0.00 0.00 0.00 85 1021.7
20260508150529 11 143 1.6 3.2 0.00 0.00 0.00 84 1021.7
20260508145524 11 149 1.6 3.2 0.00 0.00 0.00 84 1021.8
20260508144526 12 72 1.6 3.2 0.00 0.00 0.00 83 1021.8
20260508143536 12 131 1.6 3.2 0.00 0.00 0.00 82 1021.8
20260508142525 12 100 0.0 3.2 0.00 0.00 0.00 80 1021.6
20260508141535 12 202 3.2 4.8 0.00 0.00 0.00 80 1021.6
20260508140523 12 205 3.2 6.4 0.00 0.00 0.00 81 1021.6
20260508135533 12 273 1.6 4.8 0.00 0.00 0.00 82 1021.5
20260508134522 12 167 1.6 4.8 0.00 0.00 0.00 82 1021.7
20260508133531 12 220 3.2 6.4 0.00 0.00 0.00 83 1021.8
20260508132520 11 216 1.6 6.4 0.00 0.00 0.00 84 1021.8
20260508131529 11 274 1.6 4.8 0.00 0.00 0.00 84 1021.7
20260508130534 11 297 1.6 6.4 0.00 0.00 0.00 85 1021.8
20260508125528 11 252 1.6 4.8 0.00 0.00 0.00 85 1021.9
20260508124517 11 164 3.2 4.8 0.00 0.00 0.00 85 1021.5
20260508123533 11 146 1.6 6.4 0.00 0.00 0.00 83 1021.8
20260508122536 12 11 4.8 8.0 0.00 0.00 0.00 81 1021.7
20260508121525 12 351 6.4 12.9 0.00 0.00 0.00 79 1021.8
20260508120535 12 343 6.4 9.7 0.00 0.00 0.00 78 1021.9
20260508115524 12 326 6.4 11.3 0.00 0.00 0.00 78 1021.8
20260508114533 12 357 4.8 8.0 0.00 0.00 0.00 77 1021.8
20260508113528 13 353 3.2 4.8 0.00 0.00 0.00 74 1021.7
20260508112530 13 344 4.8 9.7 0.00 0.00 0.00 74 1021.7
20260508111520 13 288 4.8 11.3 0.00 0.00 0.00 74 1021.5
20260508110529 13 290 8.0 12.9 0.00 0.00 0.00 73 1021.7
20260508105519 13 270 4.8 9.7 0.00 0.00 0.00 73 1021.7
20260508104528 13 283 8.0 14.5 0.00 0.00 0.00 73 1021.6
20260508103517 13 281 4.8 11.3 0.00 0.00 0.00 73 1021.7
20260508102526 12 290 4.8 9.7 0.00 0.00 0.00 73 1021.6
20260508101535 13 278 4.8 11.3 0.00 0.00 0.00 73 1021.4
20260508100523 13 283 6.4 12.9 0.00 0.00 0.00 72 1021.5
20260508095534 12 280 4.8 11.3 0.00 0.00 0.00 73 1021.5
20260508094523 12 278 6.4 14.5 0.00 0.00 0.00 72 1021.3
20260508093539 12 260 6.4 14.5 0.00 0.00 0.00 73 1021.1
20260508092520 12 282 4.8 12.9 0.00 0.00 0.00 72 1021.2
20260508091551 12 297 6.4 12.9 0.00 0.00 0.00 73 1021.2
20260508090519 12 279 4.8 11.3 0.00 0.00 0.00 72 1020.9
20260508085527 12 302 6.4 12.9 0.00 0.00 0.00 72 1020.8
20260508084518 12 278 6.4 14.5 0.00 0.00 0.00 72 1020.4
20260508083527 12 304 8.0 16.1 0.00 0.00 0.00 72 1020.4
20260508082536 12 306 9.7 14.5 0.00 0.00 0.00 72 1020.2
20260508081524 12 292 9.7 19.3 0.00 0.00 0.00 73 1020.1
20260508080534 12 277 6.4 9.7 0.00 0.00 0.00 73 1019.9
20260508075523 12 267 6.4 12.9 0.00 0.00 0.00 73 1019.6
20260508074532 12 261 8.0 20.9 0.00 0.00 0.00 73 1019.5
20260508073522 12 275 9.7 27.4 0.00 0.00 0.00 72 1019.4
20260508072531 12 277 8.0 16.1 0.00 0.00 0.00 72 1019.3
20260508071519 12 276 11.3 24.1 0.00 0.00 0.00 71 1019.2
20260508070529 13 276 11.3 19.3 0.00 0.00 0.00 71 1019.0
20260508065518 13 282 12.9 24.1 0.00 0.00 0.00 70 1018.9
20260508064532 13 305 11.3 20.9 0.00 0.00 0.00 69 1018.8
20260508063516 13 297 9.7 19.3 0.00 0.00 0.00 69 1018.8
20260508062526 14 298 11.3 22.5 0.00 0.00 0.00 66 1018.5
20260508061536 14 288 11.3 22.5 0.00 0.00 0.00 66 1018.4
20260508060525 14 278 14.5 25.7 0.00 0.00 0.00 66 1018.2
20260508055533 14 270 12.9 25.7 0.00 0.00 0.00 65 1018.1
20260508054523 14 268 14.5 30.6 0.00 0.00 0.00 64 1018.1
20260508053533 14 267 14.5 27.4 0.00 0.00 0.00 63 1018.0
20260508052527 15 278 12.9 27.4 0.00 0.00 0.00 63 1018.0
20260508051538 14 276 11.3 24.1 0.00 0.00 0.00 63 1017.9
20260508050521 14 273 16.1 27.4 0.00 0.00 0.00 63 1017.9
20260508045528 14 269 14.5 27.4 0.00 0.00 0.00 63 1017.9
20260508044518 15 283 16.1 35.4 0.00 0.00 0.00 63 1017.8
20260508043535 14 276 14.5 27.4 0.00 0.00 0.00 63 1017.6
20260508042543 14 281 17.7 32.2 0.00 0.00 0.00 62 1017.7
20260508041525 15 286 16.1 30.6 0.00 0.00 0.00 62 1017.5
20260508040535 14 269 14.5 33.8 0.00 0.00 0.00 63 1017.4
20260508035525 14 274 16.1 33.8 0.00 0.00 0.00 64 1017.2
20260508034533 13 270 16.1 33.8 0.00 0.00 0.00 65 1017.2
20260508033522 14 274 16.1 30.6 0.00 0.00 0.00 64 1017.1
20260508032539 13 270 19.3 35.4 0.00 0.00 0.00 66 1017.3
20260508031522 13 291 19.3 35.4 0.00 0.00 0.00 65 1017.3